Location: Nevada
(34.0656°N, 117.2181°W)
Time: 00:49:41
(UTC+00:00)

Daily predictions for brighter satellites

Satellite Brightness Start Highest point End
(mag) Time Altitude Azimuth Time Altitude Azimuth Time Altitude Azimuth
CZ-2D R/B 3.3 02:10:30 10° SSE 02:14:19 63° ENE 02:18:10 10° N
CZ-2C R/B 4.2 02:11:48 10° ENE 02:14:55 15° E 02:18:01 10° SE
IRS-1C Rocket 4.3 02:09:42 10° S 02:14:57 78° WSW 02:20:13 10° NNW
SL-24 R/B 4.1 02:11:02 10° SSE 02:15:18 86° ENE 02:19:47 10° N
Okean-O 2.6 02:12:41 10° SSE 02:17:04 68° ENE 02:21:29 10° N
SL-16 R/B 3.1 02:11:34 10° NNW 02:17:06 55° WSW 02:22:34 10° S
SWARM A 4.4 02:15:12 10° N 02:18:32 77° W 02:21:51 10° S
Cosmos 2263 Rocket 2.3 02:14:51 10° SSW 02:20:24 83° WNW 02:26:00 10° NNE
Cosmos 990 Rocket 4.3 02:15:57 10° SSW 02:21:03 71° WNW 02:26:12 10° NNE
NOSS 2-2 (E) 2.9 02:18:27 10° SSW 02:21:59 81° ESE 02:25:33 10° NNE
DELTA 2 R/B (1) 4.0 02:16:46 10° WNW 02:22:13 54° N 02:27:37 10° E
Cosmos 1378 3.9 02:19:08 10° NNW 02:22:47 57° W 02:26:24 10° S
Meteor 2-9 Rocket 4.3 02:18:20 10° S 02:24:09 69° E 02:29:56 10° NNE
CZ-2C R/B 3.4 02:20:50 10° SE 02:25:40 45° ENE 02:30:48 10° N
Cosmos 1844 Rocket 3.9 02:24:03 10° SE 02:27:52 19° E 02:31:41 10° ENE
SEDSat Delta rocket 4.4 02:24:37 10° W 02:29:38 37° SSW 02:34:03 10° SE
GOES 2 Rocket 4.5 02:26:53 10° SSW 02:30:03 21° SSE 02:32:56 12° ESE
Cosmos 923 Rocket 4.1 02:24:55 10° NNW 02:30:09 84° WSW 02:35:20 10° SSE
USA 116 3.5 02:26:54 10° NNE 02:30:28 79° ESE 02:34:29 10° S
NOSS 2-2 (D) 2.9 02:26:56 10° SSW 02:30:30 76° ESE 02:34:03 10° NE
YAOGAN 1 2.5 02:26:19 10° SSE 02:30:35 68° ENE 02:34:54 10° N
GP-B 3.8 02:31:04 10° N 02:35:26 59° W 02:39:47 10° SSW
ATLAS 5 CENTAUR R/B 3.4 02:33:27 10° NNW 02:37:03 44° ENE 02:48:31 10° SE
Okean 2 3.3 02:34:15 10° N 02:38:25 68° E 02:42:30 10° SSE
Cosmos 1943 3.4 02:37:18 10° N 02:42:46 49° ENE 02:48:14 10° SE
Cosmos 1975 3.7 02:41:00 10° SSW 02:44:59 55° W 02:49:01 10° N
Cosmos 1464 Rocket 4.2 02:39:37 10° SSE 02:45:22 44° E 02:51:09 10° NNE
CZ-4 R/B 2.1 02:42:59 10° S 02:47:08 59° W 02:51:19 10° NNW
CSL-04 Debris 4.1 02:43:17 10° SSE 02:48:38 74° ENE 02:54:00 10° N
Cosmos 1782 Rocket 4.0 02:46:37 10° SSW 02:50:57 64° W 02:55:21 10° N
Cosmos 2151 Rocket 4.3 02:49:54 10° SSE 02:53:45 30° E 02:57:39 10° NNE
CZ-2C R/B 0.8 02:51:08 10° W 02:54:44 81° N 02:56:26 27° ENE
Meteor 1-21 4.1 02:50:58 10° N 02:56:35 79° E 03:02:10 10° S
CSL-04 Rocket 3.6 02:52:30 10° SSE 02:57:52 85° ENE 03:03:21 10° NNW
Cosmos 1867 4.5 02:55:13 10° N 03:00:01 30° NE 03:02:04 24° E
Cosmos 1025 Rocket 4.0 02:56:25 10° NNE 03:00:09 27° ENE 03:00:45 26° E
Cosmos 1603 3.6 02:56:56 10° NNW 03:02:37 88° ENE 03:08:13 10° SSE
Milstar 3 Cent rocket 3.2 02:57:48 10° SW 03:04:00 30° SSE 03:06:06 23° SE
Cosmos 372 Rocket 3.9 03:01:30 10° SSW 03:06:45 89° ESE 03:12:01 10° NNE
Cosmos 1842 4.1 03:03:06 10° NNW 03:06:52 51° W 03:10:37 10° S
Cosmos 2150 Rocket 4.0 03:06:38 10° S 03:11:51 59° ESE 03:17:10 10° NNE
Cosmos 1891 Rocket 4.4 03:06:46 10° S 03:12:57 84° E 03:19:04 10° N
DMSP B5D2-2 4.2 03:09:50 10° NNE 03:14:57 48° E 03:20:01 10° S
SJ-6B 3.9 03:19:56 28° NE 03:19:56 28° NE 03:22:16 10° N
Cosmos 1707 2.5 03:16:58 10° N 03:20:47 71° E 03:21:45 47° SSE
Cosmos 1975 Rocket 3.7 03:17:03 10° NNW 03:21:17 55° W 03:25:28 10° S
Cosmos 2084 Rocket 3.5 03:17:04 10° NNW 03:21:33 87° WSW 03:23:22 36° SSE
Cosmos 1125 Rocket 3.7 03:16:47 10° S 03:21:48 46° ESE 03:26:52 10° NNE
ISS -1.2 03:21:04 10° W 03:23:39 20° NNW 03:26:13 10° NNE
MOS 1 Rocket 4.2 03:19:37 10° N 03:23:50 46° WNW 03:27:55 10° SSW
USA 102 4.4 03:37:52 60° SW 03:38:15 62° WSW 03:44:26 10° NNW
H-2A R/B 3.1 03:35:16 10° S 03:39:53 42° W 03:44:37 10° NNW
USA 234 3.3 03:34:04 10° NE 03:40:37 80° NW 03:47:09 10° SW
Cosmos 2034 Rocket 4.0 03:36:03 10° S 03:42:25 85° W 03:48:48 10° N
SL-08 RB Rocket 3.9 03:43:25 38° S 03:45:07 70° W 03:49:42 10° NNW
ARGOS 3.8 03:40:10 10° S 03:45:23 54° W 03:50:38 10° NNW
Nadezhda 4 Rocket 3.8 03:39:52 10° N 03:45:59 72° E 03:47:45 47° SSE
In-Cosmos 22 4.0 03:42:35 10° N 03:47:54 86° W 03:49:36 45° S
CZ-2C R/B 3.2 03:50:01 10° N 03:55:28 60° WNW 04:00:58 10° SSW
USA 186 4.2 03:57:54 21° NW 03:57:54 21° NW 03:59:15 10° NNW
Cosmos 1048 Rocket 4.4 03:51:15 10° N 03:55:32 49° NNE 03:55:32 49° NNE
MOS 1 4.2 03:56:46 54° S 03:58:08 84° WSW 04:03:51 10° NNW
Cosmos 1844 3.8 03:54:42 10° SSW 04:00:25 75° WNW 04:06:06 10° NNE
ATLAS 2A CENTAUR R/B 4.5 02:56:33 10° W 04:04:59 67° SSW 04:10:53 43° SE
DELTA 2 R/B (1) 3.7 04:03:18 10° WNW 04:08:23 66° WSW 04:08:23 66° WSW
BREEZE-M DEB (TANK) 4.3 03:53:04 10° WNW 04:11:10 75° NNE 04:12:07 65° E
Cosmos 1844 Rocket 3.6 04:06:00 10° SW 04:11:18 46° WNW 04:16:40 10° N
Ariane Rocket 3.8 04:11:02 42° SW 04:12:02 48° W 04:16:56 10° NNW
Cosmos 1634 Rocket 4.5 04:17:30 48° NNE 04:17:30 48° NNE 04:21:52 10° N
ATLAS 2AS CENTAUR R/B 2.9 04:08:22 10° SSW 04:16:09 71° ESE 04:24:04 10° NE
Cosmos 2285 Rocket 4.3 04:15:25 10° SSW 04:21:37 62° WNW 04:27:54 10° N
CENTAUR R/B 3.4 04:26:49 10° NNW 04:34:28 55° NE 04:34:28 55° NE
ATLAS 3B R/B 4.5 04:35:48 10° N 04:39:01 19° NNE 04:39:01 19° NNE
USA 238 DEB 4.0 04:36:33 10° NNW 04:42:53 69° NNW 04:42:53 69° NNW
USA 238 4.0 04:36:39 10° NNW 04:42:58 69° NNW 04:42:58 69° NNW
Cosmos 1697 Rocket 4.2 11:01:20 25° N 11:01:20 25° N 11:03:55 10° N
CZ-2C R/B 4.4 10:55:12 10° NE 10:59:28 26° E 11:02:27 16° SE
Cosmos 1980 Rocket 2.8 11:04:19 50° N 11:04:19 50° N 11:08:28 10° NNE
Cosmos 2322 Rocket 4.3 11:04:27 10° SSE 11:08:45 23° E 11:13:04 10° NE
SL-16 R/B 3.6 11:13:21 20° SSE 11:16:29 34° ESE 11:21:32 10° NE
Cosmos 2263 Rocket 4.4 11:12:47 10° N 11:17:18 24° ENE 11:21:49 10° ESE
Meteor 1-14 Rocket 4.3 11:18:58 10° N 11:24:33 74° E 11:30:04 10° SSE
Lacrosse 5 3.7 11:27:59 19° NNW 11:27:59 19° NNW 11:30:43 10° N
Cosmos 1238 Rocket 3.9 11:23:35 10° N 11:30:11 86° E 11:36:02 10° S
Cosmos 921 Rocket 3.5 11:32:00 52° NNE 11:32:00 52° NNE 11:35:12 10° NNE
Centaur D-1AR AC-48 4.4 11:30:46 10° SSE 11:31:18 10° SE 11:31:51 10° SE
NOSS 3-3 (A) 3.6 11:32:28 68° W 11:32:57 72° WNW 11:39:08 10° NNE
NOSS 3-3 (C) 3.6 11:32:38 69° W 11:33:04 72° WNW 11:39:13 10° NNE
Meteor 2-6 Rocket 4.2 11:31:13 39° S 11:33:23 79° E 11:39:08 10° N
Cosmos 44 4.3 11:37:02 31° NNW 11:37:02 31° NNW 11:39:57 10° NNE
Cosmos 2228 Rocket 3.4 11:38:52 52° NNW 11:38:52 52° NNW 11:42:18 10° N
X-37B 3.5 11:42:47 11° N 11:42:47 11° N 11:43:51 10° NNE
Meteor 1-4 Rocket 3.1 11:43:45 54° E 11:43:45 54° E 11:47:03 10° NNE
